This is the latest recevied weather packets stored in our database for station/object HS2LXA-WX. If no packets are shown the sender has not sent any weather packets the latest 10 day(s).
| Time | Temp. | Humidity | Pressure | Rain* | Wind** | Luminosity | Snow |
|---|---|---|---|---|---|---|---|
| 1788130711 | 31.11° C | 88% | 1009.3 hPa | 0 mm | - | - | - |
| 1788130111 | 30.56° C | 88% | 1009.2 hPa | 0 mm | - | - | - |
| 1788129371 | 30.56° C | 88% | 1008.9 hPa | 0 mm | - | - | - |
| 1788128771 | 31.11° C | 87% | 1009 hPa | 0 mm | - | - | - |
| 1788128188 | 31.11° C | 86% | 1009 hPa | 0 mm | - | - | - |
| 1788127515 | 31.11° C | 85% | 1009 hPa | 0 mm | - | - | - |
| 1788125685 | 31.11° C | 87% | 1009.1 hPa | 0 mm | - | - | - |
| 1788125086 | 30.56° C | 87% | 1009 hPa | 0 mm | - | - | - |
| 1788124485 | 31.11° C | 88% | 1009 hPa | 0 mm | - | - | - |
| 1788123885 | 31.11° C | 87% | 1009.1 hPa | 0 mm | - | - | - |
| 1788123284 | 31.11° C | 87% | 1008.9 hPa | 0 mm | - | - | - |
| 1788122684 | 31.11° C | 87% | 1008.9 hPa | 0 mm | - | - | - |
| 1788122084 | 31.11° C | 87% | 1008.9 hPa | 0 mm | - | - | - |
| 1788121484 | 31.11° C | 87% | 1008.9 hPa | 0 mm | - | - | - |
| 1788120885 | 31.11° C | 87% | 1009 hPa | 0 mm | - | - | - |
| 1788119917 | 31.11° C | 87% | 1009 hPa | 0 mm | - | - | - |
| 1788118936 | 31.11° C | 88% | 1009.2 hPa | 0 mm | - | - | - |
| 1788118336 | 31.11° C | 87% | 1009.2 hPa | 0 mm | - | - | - |
| 1788117519 | 31.67° C | 87% | 1009.3 hPa | 0 mm | - | - | - |
| 1788116919 | 31.11° C | 87% | 1009.5 hPa | 0 mm | - | - | - |
| 1788114877 | 31.67° C | 87% | 1009.5 hPa | 0 mm | - | - | - |
| 1788114277 | 31.67° C | 86% | 1009.6 hPa | 0 mm | - | - | - |
| 1788112107 | 31.67° C | 86% | 1010 hPa | 0 mm | - | - | - |
| 1788111071 | 30.56° C | 92% | 1010.2 hPa | 0 mm | - | - | - |
| 1788110471 | 28.89° C | 94% | 1010.1 hPa | 0 mm | - | - | - |
* Rain latest hour (hover to see other rain measurements)
** Current wind speed in m/s (hover to see current wind gust speed)